This is the latest recevied weather packets stored in our database for station/object NR0A-4. If no packets are shown the sender has not sent any weather packets the latest 1 day(s).
| Time | Temp. | Humidity | Pressure | Rain* | Wind** | Luminosity | Snow |
|---|---|---|---|---|---|---|---|
| 1778015703 | 12.78° C | 37% | 1012.7 hPa | 0 mm | 1.79 m/s, 281° | 436 W/m² | - |
| 1778015404 | 12.78° C | 34% | 1012.7 hPa | 0 mm | 2.68 m/s, 273° | 480 W/m² | - |
| 1778015104 | 12.78° C | 34% | 1012.7 hPa | 0 mm | 3.58 m/s, 280° | 399 W/m² | - |
| 1778014804 | 12.78° C | 36% | 1012.8 hPa | 0 mm | 0.89 m/s, 74° | 524 W/m² | - |
| 1778014204 | 12.22° C | 37% | 1012.8 hPa | 0 mm | 2.68 m/s, 275° | 464 W/m² | - |
| 1778013904 | 12.22° C | 36% | 1012.8 hPa | 0 mm | 0.89 m/s, 310° | 362 W/m² | - |
| 1778013604 | 12.22° C | 37% | 1012.9 hPa | 0 mm | 0.89 m/s, 307° | 406 W/m² | - |
| 1778013305 | 12.78° C | 35% | 1013 hPa | 0 mm | 4.47 m/s, 282° | 315 W/m² | - |
| 1778013004 | 13.33° C | 36% | 1012.9 hPa | 0 mm | 2.68 m/s, 196° | 355 W/m² | - |
| 1778012704 | 13.33° C | 36% | 1013.1 hPa | 0 mm | 1.34 m/s, 284° | 649 W/m² | - |
| 1778012405 | 13.33° C | 36% | 1013.1 hPa | 0 mm | 4.02 m/s, 271° | 622 W/m² | - |
| 1778012104 | 13.33° C | 39% | 1013 hPa | 0 mm | 1.79 m/s, 229° | 668 W/m² | - |
| 1778011805 | 12.78° C | 38% | 1013.2 hPa | 0 mm | 1.79 m/s, 275° | 689 W/m² | - |
| 1778011504 | 12.78° C | 36% | 1013.2 hPa | 0 mm | 1.34 m/s, 251° | 408 W/m² | - |
| 1778011204 | 12.78° C | 37% | 1013.3 hPa | 0 mm | 2.24 m/s, 271° | 461 W/m² | - |
| 1778010904 | 12.78° C | 35% | 1013.3 hPa | 0 mm | 2.24 m/s, 284° | 599 W/m² | - |
| 1778010604 | 12.78° C | 34% | 1013.4 hPa | 0 mm | 2.24 m/s, 303° | 682 W/m² | - |
| 1778010304 | 12.78° C | 38% | 1013.3 hPa | 0 mm | 2.24 m/s, 253° | 543 W/m² | - |
| 1778010004 | 13.33° C | 36% | 1013.3 hPa | 0 mm | 1.79 m/s, 341° | 499 W/m² | - |
| 1778009704 | 13.33° C | 35% | 1013.4 hPa | 0 mm | 2.68 m/s, 269° | 487 W/m² | - |
| 1778009404 | 13.33° C | 34% | 1013.4 hPa | 0 mm | 3.13 m/s, 287° | 640 W/m² | - |
| 1778009105 | 13.33° C | 36% | 1013.4 hPa | 0 mm | 3.13 m/s, 280° | 875 W/m² | - |
| 1778008804 | 12.78° C | 40% | 1013.3 hPa | 0 mm | 1.34 m/s, 275° | 601 W/m² | - |
| 1778008504 | 12.78° C | 36% | 1013.4 hPa | 0 mm | 3.13 m/s, 268° | 601 W/m² | - |
| 1778008205 | 13.33° C | 34% | 1013.4 hPa | 0 mm | 3.58 m/s, 271° | 334 W/m² | - |
* Rain latest hour (hover to see other rain measurements)
** Current wind speed in m/s (hover to see current wind gust speed)